Regional Weather Roundup
Issued by NWS

Home | Current Version | Previous Version | Text Only | Print | Product List | Glossary On
Versions: 1 2 3 4 5 6 7 8 9 10 11 12 13 14 15 16 17 18 19 20 21 22 23 24 25 26 27 28 29 30 31 32 33 34 35 36 37 38 39 40 41 42 43 44 45 46 47 48 49 50
000
ASUS44 KJAN 070110
RWRMS

MISSISSIPPI HOURLY WEATHER ROUNDUP
NATIONAL WEATHER SERVICE JACKSON MS
700 PM CST SAT FEB 06 2016

NOTE: "FAIR: INDICATES FEW OR NO CLOUDS BELOW 12,000 FEET WITH NO
SIGNIFICANT WEATHER AND/OR OBSTRUCTIONS TO VISIBILITY.

MSZ001>002-007>008-010>013-018>021-025>028-034>036-070200-
NORTHWEST MISSISSIPPI

CITY           SKY/WX    TMP DP  RH WIND       PRES   REMARKS
CLEVELAND      FAIR      46  28  49 CALM      30.31F
GREENWOOD      CLEAR     41  29  62 CALM      30.31R
GREENVILLE     CLEAR     44  29  55 E3        30.31S
OLIVE BRANCH   PTCLDY    43  25  49 CALM      30.30R
OXFORD         FAIR      37  25  60 CALM      30.32S
TUNICA         CLEAR     45  28  53 CALM      30.33R
$$

MSZ003>006-009-014>017-022>024-029>033-037>039-070200-
NORTHEAST MISSISSIPPI

CITY           SKY/WX    TMP DP  RH WIND       PRES   REMARKS
COLUMBUS AFB   CLEAR     44  30  57 N7        30.30R
CORINTH        FAIR      41  25  52 CALM      30.30R
STARKVILLE     FAIR      36  28  75 CALM      30.31R
TUPELO         PTCLDY    45  23  42 CALM      30.31S
$$

MSZ040-058-070200-
CENTRAL MISSISSIPPI

CITY           SKY/WX    TMP DP  RH WIND       PRES   REMARKS
JACKSON INTL   PTCLDY    46  23  40 CALM      30.29R
JACKSON HAWKNS CLEAR     48  19  31 NW3       30.30R
MERIDIAN KEY   CLEAR     38  26  62 NW5       30.29R WCI  34
MERIDIAN NAS   CLEAR     44  21  40 NW6       30.29R
VICKSBURG      CLEAR     48  25  40 N5        30.32R
$$

MSZ059>079-070200-
SOUTH MISSISSIPPI

CITY           SKY/WX    TMP DP  RH WIND       PRES   REMARKS
BROOKHAVEN     FAIR      43  34  70 N3        30.30R
HATTIESBURG    PTCLDY    43  27  53 CALM      30.28R
MCCOMB         CLEAR     44  29  55 N3        30.27R
NATCHEZ        CLEAR     46  21  36 N5        30.29S
PINE BELT      CLEAR     41  19  42 N5        30.28R
$$

MSZ080>082-070200-
COASTAL MISSISSIPPI

CITY           SKY/WX    TMP DP  RH WIND       PRES   REMARKS
BAY ST LOUIS   PTCLDY    48  27  43 CALM      30.27R
BILOXI         CLOUDY    48  35  60 W3        30.26R
PASCAGOULA     CLEAR     44  35  70 CALM      30.26R
GULFPORT       PTCLDY    48  32  53 W6        30.26R
$$



USA.gov is the U.S. government's official web portal to all federal, state and local government web resources and services.